Showing default

CSO-3, 63156

Orbit data source: Space-Track

CSO-3, 63156 is a French payload satellite in SSO that was launched on Thu, 06 Mar 2025 UTC via an ARIANE 62 launch vehicle from the French Guiana (FRGUI). Payload-class satellites include a variety of spacecraft equipped with specific instruments for various scientific and technological missions. These include communications satellites like Starlink; space stations such as the ISS; scientific satellites like the Hubble; Earth observation satellites from companies like Planet Labs, Umbra, and HawkEye 360; GPS; miniature CubeSats for education and research; and military/defense satellites.

Loading next visibility...
Identifier
63156, 2025-044A
Orbit
SSO
Last TLE update
2 months ago
Origin
Manufacturer
Airbus/Toulouse
Mission
Operational spacecraft
Bus & Motor
ASTROSAT-100, AOCS
Mass
3,562 kg wet, ~2,500 kg dry
Launch date (UTC)
2025-03-06 (2 months ago)
Launch vehicle
ARIANE 62
Launch site
French Guiana (FRGUI)
Object type
Payload
Rocket body
Debris
Shape & HBR
Unknown
Radar Cross Section
RCS unknown

Expand to show TLE details & history

TLE from 2 months ago
0 CSO-3
1 63156U 25044A   25073.57074855  .00000450  00000-0  17703-3 0  9994
2 63156  98.6061  14.9510 0001899  15.9635 344.1609 14.34023195  1122
Epoch: 2025-03-14T13:41Z
Definitive object data (Epoch: 2025-03-14T13:41:52.674Z)
Latitude
-0.00005°
Longitude
-2.9472°
Altitude
779.944 km
Speed
7.465 km/s
True Right ascension
00h 59m 48s
True Declination
0° 00' 00"
Sunlit
Object was in daylight at TLE epoch
Visualization TLE readout
Latitude
75.89881°
Longitude
15.64981°
Altitude
791.955 km
Speed
7.464 km/s
Apparent Right ascension
02h 25m 32s
Apparent Declination
23° 17' 16"
Sunlit
Object is in daylight
Visualization observer readout
Local Sidereal Time
14:29:36
Azimuth
1.044° NNE
Elevation
-26.789°
Doppler factor
1
Orbital elements
Apogee altitude
776.808 km
Perigee altitude
774.091 km
Semi-major axis
7,153.586 km
Eccentricity
0.0001899
Inclination
98.6061°
RAAN
14.951°
Arg. of periapsis
15.9635°
True anomaly
344.15496°
Mean anomaly
344.1609°
Eccentric anomaly
344.15793°
Mean motion
3.58722 °/min
BSTAR
0.00017703
Orbital period
100.36 mins
Loading maneuver chart data...
Loading SW <> Apogee altitude chart data...
Loading historical data...
Loading historical data...
Loading historical data...
Loading historical data...
Loading historical data...
Loading historical data...
Loading historical data...
Other satellites on launch #44 in the year 2025 (2025-03-06 UTC)

CSO-3 Visibility forecast

Observer location: undefined°, undefined°

Span
Click to sort rows by Start time (UTC) header in descending order
Start Az.
Max El. time (UTC)
Max El. Az.
Max El.
End time (UTC)
End Az.
8 mins2025-05-09 08:14:46.918Z36.549° NE2025-05-09 08:18:46.918Z100.458° ESE29.644°2025-05-09 08:22:46.918Z159.856° S
7 mins2025-05-09 09:54:46.918Z339.582° N2025-05-09 09:57:46.918Z292.432° WNW24.613°2025-05-09 10:01:46.918Z238.235° WSW
8 mins2025-05-09 19:30:46.918Z137.875° SSE2025-05-09 19:34:46.918Z53.878° ENE35.816°2025-05-09 19:38:46.918Z359.985° N
5 mins2025-05-09 21:11:46.918Z238.112° WSW2025-05-09 21:13:46.918Z267.045° W18.442°2025-05-09 21:16:46.918Z306.825° NW
|